ONEWEB-0011 (44062 NORAD) Tracking and Keplerian Element Data

This shows tracking and keplerian element data for the satellite.

Feedback or suggestion? Click here.




ElementValue
Catalog44062
NameONEWEB-0011
Epoch Orbit8010
Epoch Day298.25001157
Epoch Year2020
RAAN308.6541
Inclination87.9135
Eccentricity0.0001858
Argument of Perigee93.4876
Mean Anonmoly208.837
Mean Motion13.21822093
Decay Rate-0.00023511
L11 44062U 19010F 20298.25001157 -.00023511 00000-0 -57110-1 0 9998
L22 44062 87.9135 308.6541 0001858 93.4876 208.8370 13.21822093 80105

Live tracking and technical data element details for ONEWEB-0011 (NORAD 44062). ONEWEB-0011 can be tracked NOW for your location showing map with azimuth and elevation plus other details from your city location.

Track the satellite on the map from your city or location and see movement details for azimuth, elevation, latitude, longitude, range, height, and movement on the map or in text.







IsCatalogInMostPopularTable: catalog: 44062, numindb: 850
Update: records affected: 1



GetName: 44062 ONEWEB-0011

Hit Count: updated at: Sat, 24 Oct 2020 17:21:58 GMT